Flight Track Log - Related Links

Times and Time Zones

All times are in EDT time to prevent confusion due to time zone crossing. See the SWA1718 flight status page for this flight to view local times or setup timezone preferences in your user account.

Time Position Orientation Groundspeed Altitude Reporting Facility
EDT Latitude Longitude Course Direction KTS MPH feet Rate Location/Type
Mon 17:23:52 35.3733 -101.8381 341° North 293 337 11,400  Level Albuquerque Center
Mon 17:24:54 35.4667 -101.8783 341° North 342 394 15,100 3,484 Climbing Albuquerque Center
Mon 17:25:56 35.5631 -101.9200 341° North 362 417 18,600 3,387 Climbing Albuquerque Center
Mon 17:26:58 35.6864 -101.9717 341° North 382 440 22,100 3,048 Climbing Albuquerque Center
Mon 17:27:00 35.8066 -101.9660 342° North  Level FlightAware Approximate
Mon 17:28:00 35.9025 -102.0177 342° North  Level FlightAware Approximate
Mon 17:28:00 35.7936 -102.0189 340° North 401 461 24,900  Level Albuquerque Center
Mon 17:29:02 35.9031 -102.0664 341° North 413 475 27,200 2,081 Climbing Albuquerque Center
Mon 17:30:04 36.0167 -102.1147 341° North 426 490 29,200 2,081 Climbing Albuquerque Center
Mon 17:31:06 36.1331 -102.1644 341° North 438 504 31,500 1,355 Climbing Albuquerque Center
Mon 17:32:08 36.2478 -102.2150 340° North 439 505 32,000 242 Climbing Albuquerque Center
Mon 17:33:10 36.3858 -102.2756 341° North 438 504 32,000  Level Albuquerque Center
Mon 17:34:12 36.5003 -102.3253 341° North 437 503 32,000  Level Albuquerque Center
Mon 17:35:14 36.6144 -102.3758 340° North 436 502 32,000  Level Albuquerque Center
Mon 17:36:15 36.7289 -102.4261 341° North 436 502 32,000  Level Albuquerque Center
Mon 17:37:17 36.8433 -102.4775 340° North 437 503 32,000 242 Level Albuquerque Center
Mon 17:38:19 36.9692 -102.5331 341° North 445 512 32,500 1,161 Climbing Albuquerque Center
Mon 17:39:21 37.0797 -102.5828 340° North 443 510 34,400 1,694 Climbing Albuquerque Center
Mon 17:40:23 37.2089 -102.6397 341° North 440 506 36,000 774 Climbing Albuquerque Center
Mon 17:41:25 37.3169 -102.6900 340° North 436 502 36,000  Level Albuquerque Center
Mon 17:42:26 37.4431 -102.7458 341° North 431 496 36,000  Level Albuquerque Center
Mon 17:43:28 37.5494 -102.7911 341° North 424 488 36,000  Level Albuquerque Center
Mon 17:44:30 37.6786 -102.8319 346° North 426 490 36,000  Level Albuquerque Center
Mon 17:45:32 37.7897 -102.8661 346° North 428 493 36,000  Level Albuquerque Center
Mon 17:46:34 37.9181 -102.9072 346° North 428 493 36,000  Level Albuquerque Center
Mon 17:47:48 38.0508 -102.9469 347° North 433 498 36,000  Level Denver Center
Mon 17:48:49 38.1822 -102.9886 346° North 434 499 36,000  Level Denver Center
Mon 17:49:51 38.2947 -103.0253 346° North 435 501 36,000 -435 Level Denver Center
Mon 17:50:53 38.4294 -103.0692 346° North 448 516 35,100 -878 Descending Denver Center
Mon 17:51:54 38.5442 -103.1197 341° North 459 528 34,200 -537 Descending Denver Center
Mon 17:52:56 38.6244 -103.2217 315° West 410 472 34,000 -97 Descending Denver Center
Mon 17:53:58 38.6994 -103.3267 312° West 397 457 34,000 -339 Level Denver Center
Mon 17:55:00 38.7819 -103.4456 312° West 388 447 33,300 -1,707 Descending Denver Center
Mon 17:56:01 38.8547 -103.5464 313° West 377 434 30,500 -2,537 Descending Denver Center
Mon 17:57:03 38.9247 -103.6450 312° West 371 427 28,100 -2,177 Descending Denver Center
Mon 17:58:05 38.9886 -103.7367 312° West 346 398 26,000 -1,984 Descending Denver Center
Mon 17:59:07 39.0506 -103.8247 312° West 328 377 24,000 -1,902 Descending Denver Center
Mon 18:00:08 39.1114 -103.9111 312° West 324 373 22,100 -1,951 Descending Denver Center
Mon 18:01:10 39.1725 -104.0000 312° West 326 375 20,000 -1,742 Descending Denver Center
Mon 18:02:12 39.2361 -104.0903 312° West 335 386 18,500 -1,500 Descending Denver Center
Mon 18:03:14 39.2767 -104.2022 295° West 317 365 16,900 -1,694 Descending Denver Center
Mon 18:04:16 39.3028 -104.3081 288° West 294 338 15,000 -1,463 Descending Denver Center
Mon 18:05:17 39.3339 -104.4053 293° West 299 344 13,900 -1,122 Descending Denver Center
Mon 18:06:19 39.3828 -104.4997 304° West 315 362 12,700 -774 Descending Denver Center
Mon 18:07:21 39.4283 -104.5919 303° West 276 318 12,300 -677 Descending Denver Center
Mon 18:08:23 39.4853 -104.6494 322° Northwest 270 311 11,300 -629 Descending Denver Center
Mon 18:09:25 39.5483 -104.6639 350° North 232 267 11,000 -780 Descending Denver Center
Mon 18:10:26 39.6161 -104.6633 360° North 225 259 9,700 -1,171 Descending Denver Center
Mon 18:11:28 39.6728 -104.6622 North 199 229 8,600 -1,113 Descending Denver Center
Mon 18:12:30 39.7297 -104.6619 360° North 187 215 7,400 -968 Descending Denver Center
Mon 18:13:32 39.7742 -104.6617 360° North 162 186 6,600 -774 Descending Denver Center
Mon 18:14:34 39.8094 -104.6606 North 132 152 5,800 -585 Descending Denver Center
Mon 18:15:35 39.8428 -104.6608 360° North 119 137 5,400 -393 Descending Denver Center
Mon 18:17:00 39.8500 -104.6667 North  Level FlightAware Approximate
Mon 18:24:00 39.8617 -104.6732 North  Level Estimated
Mon 18:25:00 39.8617 -104.6732 North  Level Estimated

Login

Don't have an account? Register now (free) for customized features, flight alerts, and more!